Preview of NWS' New Version of Forecast
This preview is not operational and should not be used for support decisions.

Regional Weather Roundup (RWR)

Issued by National Weather Service (NWS)

                            
000
ASUS44 KMEG 222310
RWRTN 
TENNESSEE HOURLY STATE WEATHER ROUNDUP
NATIONAL WEATHER SERVICE MEMPHIS TN
600 PM CDT WED MAY 22 2019

TNZ002-004-019-021-049-052-054-088>092-230000-
WEST TENNESSEE
  
CITY           SKY/WX    TMP DP  RH WIND       PRES   REMARKS
MEMPHIS INTL   FAIR      87  72  60 S15       29.95F HX  93           
NWS MEMPHIS      N/A     89 N/A N/A MISG        N/A                   
JACKSON        FAIR      86  72  62 S9        29.98R HX  92           
DYERSBURG      FAIR      86  74  67 VRB5      29.96S HX  94           
SOMERVILLE     MOSUNNY   88  72  58 S8        29.97S HX  94           
COVINGTON      SUNNY     86  72  62 S10G17    29.95S HX  92           
UNION CITY     MOSUNNY   84  75  74 S6        29.94S HX  92           
BOLIVAR        SUNNY     88  72  58 VRB6G12   29.98R HX  94           
PARIS          MOSUNNY   82  73  74 S8        29.98S                  
HUNTINGDON     PTSUNNY   86  73  66 S9        29.98R HX  93           
LEXINGTON      PTSUNNY   86  70  58 S7        29.99R HX  90           
SELMER         MOSUNNY   84  72  65 S9G15     29.99S                  
SAVANNAH       MOSUNNY   88  70  55 S8        29.99S HX  92           
$$

TNZ008-025-027-028-033-062-065-066-230000-
NORTH MIDDLE TENNESSEE
  
CITY           SKY/WX    TMP DP  RH WIND       PRES   REMARKS
NASHVILLE      FAIR      89  62  40 S12       30.03S                  
DICKSON        MOCLDY    82  70  65 S7        30.02R                  
PORTLAND       PTSUNNY   86  68  54 S10       30.02S                  
CLARKSVILLE    FAIR      84  71  65 VRB5      29.99F                  
LEBANON        PTCLDY    88  63  42 S10       30.01S                  
SMYRNA         FAIR      88  65  46 S12G17    30.03F HX  90           
MURFREESBORO   CLEAR     88  61  40 S12G18    30.02S                  
COOKEVILLE     SUNNY     88  59  37 S8G15     30.07S                  
LIVINGSTON     CLEAR     86  54  32 SW9G16    30.07S                  
CROSSVILLE     FAIR      82  59  45 VRB5      30.14S                  
ROCKWOOD       CLEAR     84  59  42 SW8G14    30.12S                  
$$

TNZ061-075-076-078-094-096-097-230000-
SOUTH MIDDLE TENNESSEE
  
CITY           SKY/WX    TMP DP  RH WIND       PRES   REMARKS
LAWRENCEBURG   CLEAR     86  63  45 S8        30.05S                  
LEWISBURG      CLEAR     88  61  40 S10       30.04S                  
FAYETTEVILLE   SUNNY     86  57  37 S13       30.06S                  
TULLAHOMA      SUNNY     84  59  42 S9        30.07S                  
WINCHESTER     SUNNY     86  55  35 S12       30.08S                  
MCMINNVILLE    SUNNY     86  57  37 VRB7      30.07S                  
COLUMBIA       SUNNY     86  64  48 S8        30.01S                  
SHELBYVILLE    SUNNY     86  57  37 S9G17     30.05S                  
$$

TNZ017-018-042-046-047-230000-
NORTHEAST TENNESSEE
  
CITY           SKY/WX    TMP DP  RH WIND       PRES   REMARKS
TRI CITIES     PTSUNNY   84  65  52 S9        30.12R                  
ELIZABETHTON   CLOUDY    82  66  57 E6        30.14R                  
GREENEVILLE    MOCLDY    82  66  57 S8        30.13R                  
$$

TNZ012-013-036-069-073-074-230000-
CENTRAL EAST TENNESSEE
  
CITY           SKY/WX    TMP DP  RH WIND       PRES   REMARKS
KNOXVILLE      FAIR      87  61  41 SW13      30.08R                  
OAK RIDGE      FAIR      88  62  41 VRB3      30.10S                  
DOWNTOWN KNOXV SUNNY     88  63  42 W9        30.08S HAZE             
GATLINBURG     MOSUNNY   88  64  45 VRB7      30.08S                  
MORRISTOWN     PTSUNNY   88  63  42 W6G12     30.10S                  
JACKSBORO      SUNNY     86  59  39 SW13      30.12F                  
$$

TNZ083-085-099-230000-
SOUTHEAST TENNESSEE
  
CITY           SKY/WX    TMP DP  RH WIND       PRES   REMARKS
CHATTANOOGA    FAIR      90  60  36 S10       30.08S                  
DAYTON         CLEAR     90  63  40 SW8       30.07F HX  90           
$$

SKY/WX REPORTED AS FAIR MEANS FEW OR NO CLOUDS BELOW
12 THOUSAND FEET.